Kecskemet, Hungary

9:32 AM CEST on October 22, 2017 (GMT +0200)
Kecskemet

Weather History for LHKE - September, 2012

Change the Weather History Date:

Wednesday, September 12, 2012

  Actual Average (LHBP) Record (LHBP)
Temperature  
Mean Temperature 70 °F -  
Max Temperature 84 °F 69 °F 86 °F (2011)
Min Temperature 55 °F 49 °F 41 °F (2004)
Cooling Degree Days 4    
Growing Degree Days 20 (Base 50)    
Moisture  
Dew Point 44 °F    
Average Humidity 43    
Maximum Humidity 67    
Minimum Humidity 22    
Precipitation  
Precipitation 0.00 in - - ()
Sea Level Pressure  
Sea Level Pressure 29.84 in    
Wind  
Wind Speed 6 mph ()    
Max Wind Speed 11 mph    
Max Gust Speed -    
Visibility 6.2 miles    
Events      
Averages and records for this station are not official NWS values.
T = Trace of Precipitation, MM = Missing Value Source: Averaged Metar Reports

Daily Weather History Graph

Daily Weather History Graph

Search for Another Location

Airport or City:

Trip Planner

Search our weather history database for the weather conditions in past years. The results will help you decide how hot, cold, wet, or windy it might be!

Date:

Astronomy

Sep. 12, 2012 Rise Set
Actual Time 6:15 AM CEST 6:58 PM CEST
Civil Twilight 5:44 AM CEST 7:29 PM CEST
Nautical Twilight 5:07 AM CEST 8:05 PM CEST
Astronomical Twilight 4:29 AM CEST 8:43 PM CEST
Moon 2:01 AM CEST (9/12) 4:45 PM CEST (9/12)
Length of Visible Light 13h 44m
Length of Day
12h 43m
Waning Crescent, 15% of the Moon is Illuminated
Sep 12
Waning Crescent
Sep 16
New
Sep 22
First Quarter
Sep 30
Full
Oct 8
Last Quarter

Hourly Weather History & Observations

Time (CEST) Temp. Dew Point Humidity Pressure Visibility Wind Dir Wind Speed Gust Speed Precip Events Conditions
12:45 AM 62.6 °F 50.0 °F 63% 29.98 in - SSE 4.5 mph - N/A   Clear
1:15 AM 60.8 °F 48.2 °F 63% 29.95 in - SSE 4.5 mph - N/A   Clear
1:45 AM 60.8 °F 48.2 °F 63% 29.95 in - SSE 4.5 mph - N/A   Clear
2:15 AM 59.0 °F 48.2 °F 67% 29.95 in - SSE 4.5 mph - N/A   Clear
2:45 AM 59.0 °F 48.2 °F 67% 29.95 in - SSE 4.5 mph - N/A   Clear
3:15 AM 59.0 °F 48.2 °F 67% 29.95 in - South 4.5 mph - N/A   Clear
3:45 AM - - N/A% - - South 6.7 mph - N/A   Clear
4:15 AM 57.2 °F 46.4 °F 67% 29.92 in - SSE 2.2 mph - N/A   Clear
4:45 AM 59.0 °F 44.6 °F 59% 29.92 in - SE 6.7 mph - N/A   Clear
5:15 AM 57.2 °F 44.6 °F 63% 29.92 in - SSE 4.5 mph - N/A   Clear
5:45 AM 55.4 °F 44.6 °F 67% 29.92 in - SSE 4.5 mph - N/A   Clear
6:15 AM 55.4 °F 44.6 °F 67% 29.92 in - SSE 4.5 mph - N/A   Clear
6:45 AM - - N/A% - - South 6.7 mph - N/A   Clear
7:15 AM 57.2 °F 44.6 °F 63% 29.92 in - South 2.2 mph - N/A   Clear
7:45 AM 60.8 °F 44.6 °F 55% 29.92 in - South 6.7 mph - N/A   Clear
8:15 AM 64.4 °F 46.4 °F 52% 29.92 in - South 11.2 mph - N/A   Clear
8:45 AM 68.0 °F 44.6 °F 43% 29.92 in - South 11.2 mph - N/A   Clear
9:15 AM 69.8 °F 44.6 °F 40% 29.92 in - South 11.2 mph - N/A   Clear
9:45 AM - - N/A% - - South 8.9 mph - N/A   Clear
10:15 AM 75.2 °F 44.6 °F 34% 29.89 in - South 8.9 mph - N/A   Clear
10:45 AM 77.0 °F 42.8 °F 29% 29.89 in - South 8.9 mph - N/A   Clear
11:15 AM 78.8 °F 46.4 °F 32% 29.89 in - South 6.7 mph - N/A   Clear
11:45 AM 80.6 °F 42.8 °F 26% 29.86 in - South 6.7 mph - N/A   Clear
12:15 PM 80.6 °F 44.6 °F 28% 29.86 in - SSE 8.9 mph - N/A   Clear
12:45 PM - - N/A% - 6.2 mi South 8.9 mph - N/A   Overcast
1:15 PM 80.6 °F 44.6 °F 28% 29.83 in - South 11.2 mph - N/A   Clear
1:45 PM 82.4 °F 42.8 °F 25% 29.83 in - SSE 8.9 mph - N/A   Clear
2:15 PM 84.2 °F 42.8 °F 23% 29.80 in - SE 11.2 mph - N/A   Clear
2:45 PM 84.2 °F 41.0 °F 22% 29.80 in - SSE 8.9 mph - N/A   Clear
3:15 PM 84.2 °F 41.0 °F 22% 29.77 in - SSE 11.2 mph - N/A   Clear
3:45 PM - - N/A% - 6.2 mi SSE 6.7 mph - N/A   Overcast
4:15 PM 82.4 °F 42.8 °F 25% 29.77 in - South 8.9 mph - N/A   Clear
4:45 PM 82.4 °F 42.8 °F 25% 29.77 in - South 8.9 mph - N/A   Clear
5:15 PM 82.4 °F 44.6 °F 26% 29.74 in - SSE 8.9 mph - N/A   Clear
5:45 PM 82.4 °F 42.8 °F 25% 29.74 in - SSE 8.9 mph - N/A   Clear
6:15 PM 80.6 °F 44.6 °F 28% 29.74 in - SE 8.9 mph - N/A   Clear
6:45 PM - - N/A% - 6.2 mi SSE 8.9 mph - N/A   Clear
7:15 PM 75.2 °F 44.6 °F 34% 29.74 in - SE 6.7 mph - N/A   Clear
7:45 PM 73.4 °F 42.8 °F 33% 29.74 in - SE 6.7 mph - N/A   Clear
8:15 PM 71.6 °F 44.6 °F 38% 29.74 in - SE 6.7 mph - N/A   Clear
8:45 PM 69.8 °F 44.6 °F 40% 29.74 in - SE 6.7 mph - N/A   Clear
9:15 PM 69.8 °F 42.8 °F 38% 29.74 in - SSE 6.7 mph - N/A   Clear
9:45 PM - - N/A% - - SSE 8.9 mph - N/A   Clear
10:15 PM 66.2 °F 41.0 °F 40% 29.71 in - SSE 6.7 mph - N/A   Clear
10:45 PM 66.2 °F 41.0 °F 40% 29.71 in - SSE 6.7 mph - N/A   Clear
11:45 PM 64.4 °F 41.0 °F 42% 29.71 in - SSE 4.5 mph - N/A   Clear